COMSATBW-1

Last updated on Thu Nov 21 2024 00:02:41 GMT+0000 (Coordinated Universal Time)

1 35943U 09054B 24325.09332483 .00000026 00000+0 00000+0 0 9996 2 35943 0.0647 92.2574 0004031 158.4011 265.5629 1.00270268 55540
UTC large
Height (km)
Speed (km/s)
/
Latitude / Longitude
Inclination (degrees)
Orbital Period (minutes)
Azimuth
Elevation
Range (km)
Doppler Factor

Next 0 passes for location: London (51.5072 / 0.1276)

Sorry there are no passes over London.